Location: Arcadia
(34.1397°N, 118.0353°W)
Time: 20:25:37
(UTC+00:00)

Cosmos 1833 - Pass Details

Date: 08 September 2024
Orbit: 830 x 868 km, 70.9° (Epoch: 10 October)

Event Time Altitude Azimuth Distance (km) Brightness Sun altitude
Exits shadow 12:10:50 20° 215° (SW) 1,842 5.5 -17.0°
Maximum altitude 12:14:44 65° 292° (WNW) 929 4.2 -16.2°
Drops below altitude 10° 12:20:25 10° 15° (NNE) 2,488 7.1 -15.1°
Sets 12:22:55 0° 18° (NNE) 3,433 7.9 -14.6°
